Location: ČR
(50.0000°N, 15.0000°E)
Time: 21:04:40
(UTC+00:00)

Vanguard 3 - Pass Details

Date: 23 October 2021
Orbit: 508 x 3260 km, 33.4° (Epoch: 04 December)

Event Time Altitude Azimuth Distance (km) Brightness Sun altitude
Rises 21:20:55 0° 262° (W) 4,945 11.4 -48.1°
Reaches altitude 10° 21:24:52 10° 247° (WSW) 4,382 10.9 -48.4°
Enters shadow 21:26:23 13° 240° (WSW) 4,247 10.7 -48.5°
Maximum altitude 21:33:28 22° 204° (SSW) 4,280 - -49.0°
Drops below altitude 10° 21:44:48 10° 164° (SSE) 5,892 - -49.8°
Sets 21:51:33 0° 152° (SSE) 7,144 - -50.2°
